This is the latest recevied weather packets stored in our database for station/object K6CEG. If no packets are shown the sender has not sent any weather packets the latest 10 day(s).
| Time | Temp. | Humidity | Pressure | Rain* | Wind** | Luminosity | Snow |
|---|---|---|---|---|---|---|---|
| 1788536825 | 21.67° C | 63% | 1015.8 hPa | 0 mm | - | 89 W/m² | - |
| 1788536525 | 21.11° C | 63% | 1015.8 hPa | 0 mm | - | 224 W/m² | - |
| 1788536220 | 21.67° C | 64% | 1015.5 hPa | 0 mm | - | 147 W/m² | - |
| 1788535915 | 21.67° C | 63% | 1015.7 hPa | 0 mm | - | 213 W/m² | - |
| 1788535612 | 21.67° C | 63% | 1015.4 hPa | 0 mm | - | 177 W/m² | - |
| 1788535307 | 21.67° C | 64% | 1015.8 hPa | 0 mm | - | 172 W/m² | - |
| 1788535002 | 21.11° C | 65% | 1015.9 hPa | 0 mm | - | 182 W/m² | - |
| 1788534701 | 21.67° C | 65% | 1015.6 hPa | 0 mm | - | 132 W/m² | - |
| 1788534396 | 21.11° C | 65% | 1015.5 hPa | 0 mm | - | 136 W/m² | - |
| 1788534092 | 20.56° C | 68% | 1015.6 hPa | 0 mm | - | 108 W/m² | - |
| 1788533790 | 20° C | 71% | 1015.6 hPa | 0 mm | - | 104 W/m² | - |
| 1788533486 | 18.89° C | 74% | 1015.4 hPa | 0 mm | - | 93 W/m² | - |
| 1788533181 | 18.89° C | 74% | 1015.5 hPa | 0 mm | - | 43 W/m² | - |
| 1788532877 | 18.89° C | 76% | 1015.4 hPa | 0 mm | - | 36 W/m² | - |
| 1788532573 | 18.33° C | 76% | 1015.3 hPa | 0 mm | - | 29 W/m² | - |
| 1788532269 | 18.33° C | 77% | 1015.3 hPa | 0 mm | - | 27 W/m² | - |
| 1788531965 | 18.33° C | 77% | 1015.2 hPa | 0 mm | - | 26 W/m² | - |
| 1788531665 | 18.33° C | 78% | 1015.2 hPa | 0 mm | - | 25 W/m² | - |
| 1788531361 | 17.78° C | 78% | 1015.1 hPa | 0 mm | - | 21 W/m² | - |
| 1788531056 | 17.78° C | 79% | 1014.9 hPa | 0 mm | - | 19 W/m² | - |
| 1788530752 | 17.78° C | 79% | 1015.2 hPa | 0 mm | - | 17 W/m² | - |
| 1788530446 | 17.22° C | 79% | 1014.9 hPa | 0 mm | - | 18 W/m² | - |
| 1788530145 | 17.22° C | 79% | 1014.7 hPa | 0 mm | - | 10 W/m² | - |
| 1788529842 | 17.22° C | 79% | 1014.7 hPa | 0 mm | - | 9 W/m² | - |
| 1788529537 | 17.22° C | 79% | 1014.9 hPa | 0 mm | - | 6 W/m² | - |
* Rain latest hour (hover to see other rain measurements)
** Current wind speed in m/s (hover to see current wind gust speed)